1487998800.57,49837,7.63,72434.0,-18.75,-33.73,-31.11,0,*6C
1487998801.84,49838,7.63,72432.0,-18.71,-33.61,-31.01,0,*65
1487998803.12,49839,7.56,72418.8,-18.71,-33.61,-30.83,0,*6F
1487998804.39,49840,7.63,72418.8,-18.75,-33.61,-30.83,0,*65
1487998805.69,49841,7.63,72424.3,-18.75,-33.43,-30.77,0,*6F
1487998806.97,49842,7.63,72422.5,-18.75,-33.43,-30.67,0,*6D
1487998808.25,49843,7.56,72422.0,-18.75,-33.49,-30.67,0,*66
1487998809.52,49844,7.63,72430.3,-18.75,-33.31,-30.45,0,*6E
1487998810.81,49845,7.63,72426.5,-18.75,-32.97,-30.17,0,*65
1487998812.09,49846,7.56,72426.3,-18.71,-33.15,-30.17,0,*69
1487998813.36,49847,7.63,72426.5,-18.71,-33.15,-30.17,0,*68
1487998814.58,49848,7.56,72422.8,-18.69,-32.91,-30.11,0,*65
1487998815.88,49849,7.63,72428.3,-18.71,-33.09,-30.17,0,*6B
1487998817.12,49850,7.56,72426.5,-18.69,-32.91,-30.01,0,*6D
1487998818.39,49851,7.56,72424.0,-18.71,-32.91,-30.05,0,*61
1487998819.61,49852,7.56,72422.3,-18.69,-33.03,-30.11,0,*64
1487998820.83,49853,7.56,72422.5,-18.69,-32.91,-30.11,0,*6F
1487998822.05,49854,7.56,72418.8,-18.69,-33.03,-30.23,0,*63
1487998823.29,49855,7.63,72424.5,-18.69,-33.27,-30.23,0,*64
1487998824.6,49856,7.63,72412.0,-18.71,-33.43,-30.17,0,*6B
1487998825.85,49857,7.63,72414.3,-18.69,-33.67,-30.17,0,*65
1487998827.14,49858,7.56,72418.0,-18.67,-33.61,-30.01,0,*65
1487998828.42,49859,7.56,72426.3,-18.69,-33.77,-29.89,0,*65
1487998829.64,49860,7.56,72428.0,-18.69,-33.83,-29.83,0,*6E
1487998830.92,49861,7.56,72418.8,-18.69,-33.77,-29.51,0,*6B
1487998832.17,49862,7.56,72414.5,-18.69,-33.67,-29.17,0,*6B
1487998833.4,49863,7.63,72426.0,-18.67,-33.55,-28.97,0,*6C
1487998834.64,49864,7.56,72422.0,-18.67,-33.55,-28.85,0,*68
1487998835.9,49865,7.63,72424.0,-18.67,-33.27,-28.53,0,*67
1487998837.12,49866,7.56,72424.0,-18.65,-32.91,-28.31,0,*6E
1487998838.42,49867,7.56,72430.5,-18.67,-32.75,-28.05,0,*60
1487998839.69,49868,7.56,72430.3,-18.67,-32.57,-27.99,0,*65
1487998840.95,49869,7.63,72436.3,-18.67,-32.19,-27.77,0,*6E
1487998842.24,49870,7.56,72426.5,-18.67,-31.95,-27.61,0,*66
1487998843.48,49871,7.56,72420.8,-18.65,-31.67,-27.45,0,*6E
1487998844.73,49872,7.56,72418.3,-18.65,-31.61,-27.51,0,*6E
1487998845.94,49873,7.56,72422.0,-18.65,-31.33,-27.51,0,*68
1487998847.19,49874,7.56,72432.5,-18.65,-31.29,-27.61,0,*67
1487998848.44,49875,7.63,72434.3,-18.65,-31.23,-27.51,0,*6F
1487998849.7,49876,7.56,72438.3,-18.63,-30.89,-27.55,0,*6F
1487998850.99,49877,7.56,72446.5,-18.67,-30.77,-27.61,0,*6C
1487998852.26,49878,7.56,72442.8,-18.65,-30.55,-27.61,0,*61
1487998853.53,49879,7.56,72436.5,-18.67,-30.39,-27.45,0,*6E
1487998854.77,49880,7.56,72428.3,-18.65,-30.39,-27.51,0,*6F
1487998856.03,49881,7.63,72426.0,-18.65,-30.55,-27.61,0,*67
1487998857.27,49882,7.56,72406.5,-18.65,-30.45,-27.61,0,*65
1487998858.51,49883,7.56,72390.5,-18.65,-30.45,-27.61,0,*64
1487998859.77,49884,7.56,72396.0,-18.65,-30.39,-27.61,0,*68
1487998861.07,49885,7.56,72388.8,-18.63,-30.17,-27.39,0,*6E
1487998862.33,49886,7.56,72386.5,-18.63,-30.33,-27.39,0,*6B
1487998863.62,49887,7.56,72388.0,-18.63,-30.17,-27.45,0,*67
1487998864.9,49888,7.56,72394.5,-18.63,-30.05,-27.45,0,*6B
1487998866.17,49889,7.56,72408.0,-18.63,-29.95,-27.39,0,*60
1487998867.43,49890,7.56,72412.8,-18.63,-29.95,-27.29,0,*69
1487998868.69,49891,7.56,72412.8,-18.63,-29.79,-27.45,0,*60
1487998869.98,49892,7.56,72384.5,-18.59,-29.73,-27.35,0,*67
1487998871.25,49893,7.56,72394.8,-18.59,-29.89,-27.55,0,*65
1487998872.5,49894,7.56,72414.8,-18.59,-29.61,-27.51,0,*60
1487998873.74,49895,7.56,72408.0,-18.63,-29.67,-27.55,0,*6A
1487998875.02,49896,7.56,72402.3,-18.59,-29.57,-27.39,0,*69
1487998876.28,49897,7.56,72404.8,-18.59,-29.73,-27.51,0,*60
1487998877.55,49898,7.56,72420.0,-18.59,-29.73,-27.55,0,*6B
1487998878.79,49899,7.56,72422.8,-18.59,-29.61,-27.55,0,*69
1487998880.04,49900,7.56,72410.5,-18.59,-29.57,-27.55,0,*6D
1487998881.29,49901,7.56,72400.3,-18.59,-29.57,-27.55,0,*6C
1487998882.53,49902,7.56,72410.0,-18.59,-29.45,-27.71,0,*6A
1487998883.78,49903,7.56,72406.3,-18.59,-29.45,-27.89,0,*6C
1487998885.03,49904,7.56,72408.3,-18.59,-29.57,-27.89,0,*68
1487998886.3,49905,7.56,72412.3,-18.59,-29.57,-28.09,0,*6E
1487998887.55,49906,7.56,72418.8,-18.57,-29.57,-28.09,0,*63
1487998888.82,49907,7.63,72426.5,-18.63,-29.67,-28.43,0,*68
1487998890.1,49908,7.56,72436.8,-18.59,-29.89,-28.53,0,*6F
1487998891.34,49909,7.56,72428.0,-18.57,-29.73,-28.53,0,*65
1487998892.58,49910,7.56,72420.8,-18.57,-30.11,-28.75,0,*65
1487998893.87,49911,7.56,72428.3,-18.55,-30.05,-28.63,0,*64
1487998895.1,49912,7.63,72428.0,-18.57,-30.45,-29.13,0,*67
1487998896.31,49913,7.56,72422.0,-18.57,-30.67,-29.07,0,*63
1487998897.55,49914,7.56,72424.3,-18.57,-30.77,-29.07,0,*65
1487998898.79,49915,7.63,72428.0,-18.57,-30.95,-28.97,0,*60
1487998900.04,49916,7.56,72426.0,-18.55,-31.17,-28.85,0,*69
1487998901.3,49917,7.56,72428.8,-18.55,-31.29,-28.79,0,*66
1487998902.54,49918,7.63,72440.0,-18.55,-31.33,-28.69,0,*63
1487998903.78,49919,7.63,72428.5,-18.57,-31.39,-28.69,0,*6A
1487998905.04,49920,7.56,72430.0,-18.55,-31.33,-28.47,0,*64
1487998906.28,49921,7.56,72428.0,-18.55,-31.17,-28.37,0,*64
1487998907.56,49922,7.56,72428.8,-18.55,-30.95,-28.31,0,*6A
1487998908.83,49923,7.56,72430.8,-18.55,-30.89,-28.31,0,*66
1487998910.13,49924,7.56,72436.0,-18.55,-30.77,-28.21,0,*61
1487998911.39,49925,7.56,72428.5,-18.55,-30.61,-28.37,0,*60
1487998912.68,49926,7.56,72422.8,-18.55,-30.61,-28.47,0,*64
1487998913.95,49927,7.56,72422.5,-18.55,-30.77,-28.53,0,*67
1487998915.21,49928,7.56,72420.3,-18.55,-30.77,-28.53,0,*68
1487998916.46,49929,7.63,72426.8,-18.53,-30.77,-28.69,0,*66
1487998917.75,49930,7.56,72426.8,-18.55,-30.77,-28.63,0,*62
1487998919.02,49931,7.56,72428.5,-18.55,-30.89,-28.69,0,*68
1487998920.28,49932,7.56,72416.0,-18.53,-30.73,-28.79,0,*69
1487998921.52,49933,7.56,72414.5,-18.53,-30.61,-28.69,0,*6A
1487998922.81,49934,7.56,72418.5,-18.55,-30.73,-28.79,0,*69
1487998924.07,49935,7.56,72414.0,-18.53,-30.61,-28.79,0,*6D
1487998925.34,49936,7.56,72422.5,-18.53,-30.73,-28.91,0,*6B
1487998926.61,49937,7.56,72402.0,-18.53,-30.73,-28.91,0,*6A
1487998927.88,49938,7.56,72410.5,-18.53,-30.89,-28.91,0,*60
1487998929.11,49939,7.56,72390.3,-18.53,-31.05,-29.17,0,*6B
1487998930.35,49940,7.56,72398.8,-18.53,-31.17,-29.39,0,*6A
1487998931.6,49941,7.56,72404.8,-18.53,-31.29,-29.51,0,*68
1487998932.85,49942,7.56,72408.5,-18.53,-31.45,-29.73,0,*61
1487998934.09,49943,7.56,72396.5,-18.53,-31.45,-29.73,0,*60
1487998935.33,49944,7.56,72398.0,-18.47,-31.29,-29.79,0,*62
1487998936.56,49945,7.56,72414.8,-18.49,-31.29,-29.83,0,*68
1487998937.8,49946,7.56,72426.0,-18.49,-31.29,-30.17,0,*6E
1487998939.03,49947,7.56,72412.0,-18.49,-31.29,-30.33,0,*69
1487998940.28,49948,7.63,72396.3,-18.49,-31.57,-30.67,0,*6E
1487998941.56,49949,7.56,72398.3,-18.49,-31.61,-30.89,0,*6A
1487998942.86,49950,7.56,72398.0,-18.47,-31.95,-31.39,0,*6D
1487998944.1,49951,7.56,72390.5,-18.49,-32.29,-31.29,0,*67
1487998945.35,49952,7.56,72386.8,-18.49,-32.51,-31.11,0,*60
1487998946.62,49953,7.56,72402.3,-18.49,-32.63,-31.23,0,*61
1487998947.84,49954,7.56,72414.3,-18.53,-33.03,-31.29,0,*60
1487998949.06,49955,7.56,72426.0,-18.49,-33.03,-31.01,0,*60
1487998950.31,49956,7.56,72422.3,-18.49,-33.21,-30.89,0,*62
1487998951.59,49957,7.56,72430.0,-18.49,-33.31,-31.23,0,*63
1487998952.83,49958,7.56,72438.0,-18.49,-33.37,-31.39,0,*61
1487998954.11,49959,7.56,72446.5,-18.53,-33.49,-31.61,0,*6F
1487998955.38,49960,7.63,72450.5,-18.53,-33.49,-31.51,0,*66
1487998956.65,49961,7.56,72450.3,-18.53,-33.61,-31.61,0,*6E
1487998957.92,49962,7.56,72452.8,-18.53,-33.61,-31.61,0,*6D
1487998959.19,49963,7.56,72450.8,-18.53,-33.61,-31.61,0,*6C
1487998960.44,49964,7.56,72454.8,-18.53,-33.67,-31.61,0,*6D
1487998961.71,49965,7.63,72458.0,-18.53,-33.77,-31.61,0,*6D
1487998962.98,49966,7.56,72448.5,-18.53,-33.77,-31.51,0,*6D
1487998964.23,49967,7.56,72448.5,-18.53,-33.83,-31.51,0,*67
1487998965.47,49968,7.56,72452.5,-18.53,-33.95,-31.61,0,*6C
1487998966.75,49969,7.56,72458.0,-18.53,-34.01,-31.51,0,*64
1487998968.02,49970,7.56,72452.5,-18.53,-34.01,-31.61,0,*6F
1487998969.24,49971,7.56,72458.3,-18.53,-33.95,-31.33,0,*63
1487998970.48,49972,7.56,72456.5,-18.55,-33.95,-31.05,0,*63
1487998971.73,49973,7.56,72448.5,-18.53,-33.95,-30.89,0,*61
1487998972.98,49974,7.56,72426.8,-18.53,-33.83,-30.61,0,*67
1487998974.23,49975,7.56,72426.8,-18.53,-33.67,-30.39,0,*61
1487998975.48,49976,7.56,72428.3,-18.53,-33.49,-30.23,0,*65
1487998976.74,49977,7.63,72430.3,-18.53,-33.27,-30.05,0,*68
1487998977.96,49978,7.56,72434.5,-18.53,-33.21,-29.95,0,*60
1487998979.21,49979,7.56,72444.8,-18.49,-33.03,-30.01,0,*6F
1487998980.47,49980,7.56,72444.8,-18.53,-32.85,-29.73,0,*60
1487998981.7,49981,7.56,72432.8,-18.53,-32.57,-29.67,0,*6B
1487998982.94,49982,7.56,72434.0,-18.53,-32.51,-29.73,0,*6B
1487998984.18,49983,7.56,72442.0,-18.53,-32.23,-29.89,0,*6A
1487998985.43,49984,7.56,72438.8,-18.53,-32.13,-30.05,0,*62
1487998986.67,49985,7.56,72430.8,-18.53,-32.23,-30.39,0,*6F
1487998987.9,49986,7.56,72436.3,-18.53,-32.35,-30.39,0,*6B
1487998989.12,49987,7.56,72456.5,-18.53,-32.51,-30.45,0,*63
1487998990.37,49988,7.56,72450.3,-18.53,-32.51,-30.55,0,*6D
1487998991.62,49989,7.56,72440.8,-18.53,-32.69,-30.55,0,*67
1487998992.89,49990,7.56,72446.3,-18.53,-32.75,-30.55,0,*62
1487998994.13,49991,7.56,72442.0,-18.53,-32.91,-30.55,0,*69
1487998995.38,49992,7.56,72436.3,-18.53,-32.91,-30.73,0,*6E
1487998996.65,49993,7.56,72438.8,-18.53,-33.09,-30.61,0,*6C
1487998997.9,49994,7.56,72434.3,-18.49,-33.03,-30.55,0,*6D
1487998999.17,49995,7.56,72436.5,-18.53,-33.27,-30.77,0,*61
1487999000.45,49996,7.56,72448.3,-18.53,-33.43,-30.77,0,*60
1487999001.71,49997,7.56,72438.5,-18.49,-33.37,-30.73,0,*6D
1487999002.96,49998,7.56,72444.0,-18.49,-33.43,-30.83,0,*6E
1487999004.19,49999,7.56,72442.0,-18.49,-33.37,-30.83,0,*6C
1487999005.46,50000,7.63,72428.8,-18.49,-33.61,-30.89,0,*64
1487999006.71,50001,7.56,72434.0,-18.49,-33.55,-30.73,0,*67
1487999007.96,50002,7.56,72438.3,-18.49,-33.61,-30.83,0,*6C
1487999009.2,50003,7.56,72444.5,-18.49,-33.61,-31.01,0,*66
1487999010.46,50004,7.56,72438.8,-18.49,-33.73,-30.83,0,*69
1487999011.74,50005,7.56,72442.0,-18.49,-33.73,-30.73,0,*67
1487999013.02,50006,7.56,72436.0,-18.49,-33.77,-30.73,0,*60
1487999014.3,50007,7.56,72438.3,-18.47,-33.73,-30.67,0,*6E
1487999015.57,50008,7.56,72440.5,-18.49,-33.61,-30.73,0,*69
1487999016.83,50009,7.56,72432.0,-18.49,-33.73,-30.67,0,*6E
1487999018.09,50010,7.63,72438.5,-18.49,-33.77,-30.67,0,*62
1487999019.34,50011,7.56,72436.8,-18.49,-33.73,-30.67,0,*67
1487999020.62,50012,7.56,72440.5,-18.49,-33.77,-30.73,0,*65
1487999021.88,50013,7.63,72440.5,-18.49,-33.89,-30.55,0,*61
1487999023.18,50014,7.56,72436.8,-18.47,-33.89,-30.51,0,*6C
1487999024.43,50015,7.56,72436.3,-18.49,-33.77,-30.33,0,*66
1487999025.67,50016,7.56,72432.5,-18.49,-33.77,-30.33,0,*65
1487999026.96,50017,7.56,72424.3,-18.47,-33.61,-30.05,0,*68
1487999028.23,50018,7.56,72420.3,-18.47,-33.55,-30.01,0,*64
1487999029.44,50019,7.56,72430.3,-18.49,-33.55,-29.79,0,*6C
1487999030.72,50020,7.56,72426.0,-18.49,-33.31,-29.51,0,*6E
1487999031.96,50021,7.63,72414.3,-18.47,-33.03,-29.45,0,*65
1487999033.23,50022,7.56,72386.8,-18.47,-32.69,-29.13,0,*68
1487999034.49,50023,7.56,72382.3,-18.49,-32.45,-29.13,0,*69
1487999035.73,50024,7.56,72404.3,-18.49,-32.19,-28.85,0,*69
1487999036.96,50025,7.56,72426.8,-18.49,-32.13,-28.85,0,*62
1487999038.18,50026,7.56,72408.5,-18.49,-32.13,-28.85,0,*61
1487999039.48,50027,7.56,72412.8,-18.47,-32.07,-28.59,0,*6A
1487999040.75,50028,7.56,72418.3,-18.49,-31.61,-28.47,0,*67
1487999042.0,50029,7.56,72416.0,-18.47,-31.45,-28.31,0,*6F
1487999043.25,50030,7.56,72416.3,-18.47,-31.29,-28.31,0,*6D
1487999044.53,50031,7.56,72412.3,-18.47,-31.23,-28.31,0,*66
1487999045.81,50032,7.56,72416.8,-18.47,-31.11,-28.15,0,*62
1487999047.05,50033,7.56,72430.8,-18.47,-31.05,-28.15,0,*66
1487999048.32,50034,7.56,72426.8,-18.47,-31.01,-28.09,0,*68
1487999049.61,50035,7.56,72434.3,-18.47,-30.89,-27.83,0,*65
1487999050.85,50036,7.56,72432.0,-18.49,-30.73,-27.77,0,*66
1487999052.12,50037,7.56,72436.0,-18.47,-30.67,-27.61,0,*6B
1487999053.4,50038,7.56,72436.5,-18.47,-30.67,-27.39,0,*69
1487999054.66,50039,7.56,72432.5,-18.47,-30.39,-27.29,0,*62
1487999055.88,50040,7.56,72434.3,-18.49,-30.23,-27.13,0,*60
1487999057.14,50041,7.56,72426.5,-18.49,-30.05,-26.93,0,*6C
1487999058.43,50042,7.56,72410.8,-18.47,-30.05,-26.77,0,*6B
1487999059.67,50043,7.56,72416.0,-18.49,-29.79,-26.55,0,*67
1487999060.93,50044,7.56,72416.8,-18.47,-29.45,-26.39,0,*6B
1487999062.2,50045,7.56,72424.3,-18.47,-29.17,-26.39,0,*6D
1487999063.5,50046,7.56,72428.5,-18.47,-29.13,-26.29,0,*6B
1487999064.74,50047,7.56,72416.3,-18.43,-28.97,-26.23,0,*69
1487999066.04,50048,7.56,72416.5,-18.43,-28.91,-26.17,0,*67
1487999067.3,50049,7.56,72416.5,-18.43,-28.75,-26.23,0,*6B
1487999068.6,50050,7.56,72416.5,-18.43,-28.59,-26.17,0,*6A
1487999069.87,50051,7.56,72418.3,-18.43,-28.59,-26.07,0,*6A
1487999071.14,50052,7.56,72420.5,-18.43,-28.43,-26.03,0,*66
1487999072.42,50053,7.56,72428.5,-18.43,-28.43,-26.03,0,*67
1487999073.64,50054,7.56,72428.8,-18.41,-28.37,-25.87,0,*6E
1487999074.88,50055,7.56,72430.3,-18.41,-28.25,-25.91,0,*6B
1487999076.13,50056,7.56,72436.8,-18.43,-28.37,-26.03,0,*61
1487999077.4,50057,7.56,72434.5,-18.43,-28.25,-25.87,0,*6C
1487999078.67,50058,7.56,72452.5,-18.41,-28.09,-25.75,0,*62
1487999079.92,50059,7.56,72446.8,-18.41,-28.05,-25.87,0,*62
1487999081.16,50060,7.56,72440.3,-18.43,-27.93,-25.87,0,*6A
1487999082.4,50061,7.56,72444.3,-18.43,-27.93,-25.91,0,*6C
1487999083.62,50062,7.56,72450.3,-18.41,-27.77,-25.87,0,*60
1487999084.84,50063,7.56,72452.3,-18.41,-27.71,-25.87,0,*67
1487999086.06,50064,7.56,72448.3,-18.41,-27.71,-26.03,0,*6F
1487999087.28,50065,7.56,72462.5,-18.41,-27.67,-25.91,0,*61
1487999088.5,50066,7.56,72460.0,-18.41,-27.77,-26.03,0,*6B
1487999089.72,50067,7.56,72456.0,-18.41,-27.67,-25.91,0,*63
1487999090.96,50068,7.56,72458.3,-18.43,-27.55,-25.91,0,*6F
1487999092.17,50069,7.56,72460.3,-18.41,-27.55,-26.07,0,*60
1487999093.41,50070,7.56,72462.8,-18.41,-27.55,-26.17,0,*69
1487999094.66,50071,7.56,72454.5,-18.41,-27.67,-26.17,0,*69
1487999095.9,50072,7.56,72458.3,-18.43,-27.67,-26.23,0,*6F
1487999097.15,50073,7.56,72458.8,-18.41,-27.71,-26.17,0,*6C
1487999098.36,50074,7.56,72458.8,-18.41,-27.67,-26.23,0,*6B
1487999099.58,50075,7.56,72458.3,-18.41,-27.77,-26.23,0,*6B
1487999100.82,50076,7.56,72438.5,-18.43,-27.89,-26.23,0,*6B
1487999102.03,50077,7.56,72438.8,-18.41,-27.89,-26.23,0,*68
1487999103.27,50078,7.56,72446.5,-18.41,-27.89,-26.17,0,*60
1487999104.49,50079,7.56,72444.8,-18.41,-27.93,-26.07,0,*6B
1487999105.71,50080,7.56,72444.8,-18.41,-27.93,-26.03,0,*69
1487999106.94,50081,7.56,72444.5,-18.41,-27.93,-26.03,0,*68
1487999108.16,50082,7.56,72454.0,-18.41,-27.89,-26.03,0,*60
1487999109.4,50083,7.56,72420.0,-18.43,-27.71,-25.91,0,*6C
1487999110.61,50084,7.56,72422.5,-18.41,-27.77,-25.91,0,*6F
1487999111.83,50085,7.56,72434.8,-18.41,-27.71,-26.07,0,*64
1487999113.1,50086,7.56,72432.8,-18.39,-27.71,-26.17,0,*69
1487999114.4,50087,7.56,72438.0,-18.39,-27.83,-26.13,0,*61
1487999115.66,50088,7.56,72434.8,-18.35,-27.83,-26.23,0,*61
1487999116.96,50089,7.56,72432.0,-18.35,-28.09,-26.29,0,*67
1487999118.23,50090,7.56,72432.5,-18.39,-28.31,-26.55,0,*63
1487999119.5,50091,7.56,72430.3,-18.39,-28.47,-26.45,0,*62
1487999120.74,50092,7.56,72428.3,-18.39,-28.69,-26.65,0,*6F
1487999122.04,50093,7.56,72428.0,-18.39,-28.91,-26.71,0,*6C
1487999123.29,50094,7.56,72426.5,-18.39,-29.07,-26.87,0,*6C
1487999124.59,50095,7.56,72426.8,-18.39,-29.01,-26.81,0,*6D
1487999125.86,50096,7.56,72430.0,-18.39,-29.17,-26.87,0,*6F
1487999127.17,50097,7.56,72430.3,-18.35,-29.35,-26.97,0,*63
1487999128.45,50098,7.56,72430.5,-18.39,-29.67,-26.97,0,*67
1487999129.69,50099,7.56,72428.3,-18.39,-29.79,-27.13,0,*64
1487999130.99,50100,7.56,72430.3,-18.35,-29.73,-26.81,0,*69
1487999132.28,50101,7.56,72424.5,-18.35,-30.05,-26.81,0,*61
1487999133.58,50102,7.56,72430.5,-18.35,-30.05,-26.81,0,*62
1487999134.88,50103,7.56,72434.5,-18.35,-30.17,-26.81,0,*60
1487999136.15,50104,7.56,72434.0,-18.35,-30.17,-26.49,0,*63
1487999137.41,50105,7.56,72436.0,-18.35,-30.17,-26.49,0,*62
1487999138.71,50106,7.56,72414.5,-18.35,-30.05,-26.29,0,*64
1487999139.98,50107,7.56,72408.8,-18.35,-29.89,-26.23,0,*63
1487999141.23,50108,7.56,72394.5,-18.35,-29.83,-26.23,0,*66
1487999142.48,50109,7.56,72382.8,-18.35,-29.67,-26.23,0,*6D
1487999143.76,50110,7.56,72380.8,-18.35,-29.45,-26.29,0,*6F
1487999145.0,50111,7.56,72378.8,-18.35,-29.45,-26.23,0,*64
1487999146.27,50112,7.56,72384.8,-18.35,-29.29,-26.23,0,*6D
1487999147.54,50113,7.56,72398.3,-18.35,-29.13,-26.07,0,*63
1487999148.82,50114,7.56,72412.0,-18.39,-29.07,-26.13,0,*68
1487999150.1,50115,7.56,72418.0,-18.35,-29.01,-26.07,0,*66
1487999151.37,50116,7.56,72414.3,-18.35,-28.97,-26.13,0,*6E
1487999152.64,50117,7.56,72418.8,-18.35,-29.01,-26.07,0,*64
1487999153.95,50118,7.56,72410.0,-18.35,-28.79,-25.75,0,*63
1487999155.22,50119,7.56,72416.8,-18.39,-28.85,-25.81,0,*66
1487999156.5,50120,7.56,72418.0,-18.35,-28.85,-25.75,0,*6B
1487999157.81,50121,7.56,72412.8,-18.39,-28.91,-25.81,0,*68
1487999159.06,50122,7.56,72414.5,-18.35,-28.85,-25.61,0,*6C
1487999160.36,50123,7.56,72414.8,-18.35,-28.63,-25.45,0,*63
1487999161.65,50124,7.56,72426.5,-18.35,-28.47,-25.29,0,*68
1487999162.93,50125,7.56,72430.8,-18.35,-28.09,-25.09,0,*61
1487999164.21,50126,7.56,72434.5,-18.35,-28.25,-25.13,0,*67
1487999165.48,50127,7.56,72454.0,-18.35,-28.43,-25.13,0,*66
1487999166.69,50128,7.56,72444.8,-18.33,-28.31,-24.97,0,*67
1487999167.98,50129,7.56,72422.8,-18.35,-28.09,-24.67,0,*64
1487999169.28,50130,7.56,72430.5,-18.35,-27.61,-24.15,0,*68
1487999170.54,50131,7.56,72440.0,-18.33,-26.97,-24.15,0,*67
1487999171.81,50132,7.56,72440.5,-18.33,-26.77,-23.99,0,*69
1487999173.02,50133,7.56,72434.3,-18.33,-27.13,-24.31,0,*6E
1487999174.27,50134,7.56,72438.8,-18.33,-27.39,-24.47,0,*60
1487999175.51,50135,7.56,72438.3,-18.33,-27.13,-24.25,0,*6D
1487999176.72,50136,7.56,72434.8,-18.33,-27.07,-24.35,0,*6A
1487999177.99,50137,7.56,72430.5,-18.31,-27.03,-24.21,0,*68
1487999179.29,50138,7.56,72426.3,-18.31,-26.93,-24.21,0,*6F
1487999180.53,50139,7.56,72416.5,-18.31,-26.87,-24.05,0,*6D
1487999181.77,50140,7.56,72408.5,-18.33,-26.65,-24.15,0,*6C
1487999183.01,50141,7.56,72410.5,-18.33,-26.65,-24.11,0,*69
1487999184.25,50142,7.56,72418.3,-18.33,-26.45,-24.11,0,*68
1487999185.52,50143,7.56,72420.3,-18.31,-26.33,-24.05,0,*6F
1487999186.78,50144,7.56,72424.3,-18.33,-26.29,-24.15,0,*60
1487999188.06,50145,7.56,72430.0,-18.31,-26.33,-24.05,0,*69
1487999189.35,50146,7.56,72430.0,-18.31,-26.33,-24.11,0,*6F
1487999190.62,50147,7.56,72428.5,-18.31,-26.45,-24.21,0,*6C
1487999191.89,50148,7.56,72430.3,-18.31,-26.45,-24.11,0,*60
1487999193.12,50149,7.56,72424.3,-18.31,-26.23,-23.89,0,*67
1487999194.39,50150,7.56,72424.8,-18.31,-26.33,-23.89,0,*6E
1487999195.66,50151,7.56,72422.3,-18.31,-26.17,-23.79,0,*66
1487999196.92,50152,7.56,72418.5,-18.31,-26.07,-23.95,0,*66
1487999198.18,50153,7.56,72422.8,-18.31,-25.91,-24.11,0,*60
1487999199.45,50154,7.56,72416.3,-18.31,-26.07,-24.41,0,*6E
1487999200.69,50155,7.56,72426.0,-18.31,-26.23,-24.47,0,*6F
1487999201.95,50156,7.56,72424.8,-18.31,-26.55,-24.77,0,*6E
1487999203.22,50157,7.56,72428.0,-18.31,-26.77,-25.19,0,*66
1487999204.5,50158,7.56,72430.0,-18.31,-26.93,-25.23,0,*6A
1487999205.77,50159,7.56,72428.0,-18.31,-27.35,-25.61,0,*60
1487999207.02,50160,7.56,72428.8,-18.31,-27.55,-25.61,0,*6C
1487999208.27,50161,7.56,72430.0,-18.29,-27.89,-25.71,0,*64
1487999209.57,50162,7.56,72432.3,-18.31,-28.05,-25.55,0,*63
1487999210.85,50163,7.56,72430.5,-18.31,-28.37,-25.55,0,*63
1487999212.12,50164,7.56,72428.0,-18.31,-28.37,-25.55,0,*64
1487999213.4,50165,7.56,72420.5,-18.31,-28.37,-25.55,0,*65
1487999214.65,50166,7.56,72434.8,-18.31,-28.37,-25.39,0,*6C
1487999215.93,50167,7.56,72434.5,-18.31,-28.25,-25.61,0,*63
1487999217.21,50168,7.56,72426.8,-18.31,-28.09,-25.61,0,*62
1487999218.51,50169,7.56,72428.0,-18.31,-28.09,-25.71,0,*62
1487999219.76,50170,7.56,72424.8,-18.29,-28.09,-25.61,0,*62
1487999220.99,50171,7.56,72420.0,-18.29,-27.93,-25.61,0,*6F
1487999222.21,50172,7.56,72418.8,-18.29,-27.77,-25.39,0,*6B
1487999223.46,50173,7.56,72412.0,-18.31,-27.77,-25.39,0,*63
1487999224.73,50174,7.56,72426.8,-18.31,-27.61,-25.35,0,*6F
1487999225.99,50175,7.56,72432.5,-18.29,-27.61,-25.09,0,*68
1487999227.24,50176,7.56,72442.3,-18.29,-27.39,-25.09,0,*66
1487999228.53,50177,7.56,72442.8,-18.31,-27.39,-25.03,0,*64
1487999229.8,50178,7.56,72444.0,-18.29,-27.35,-25.03,0,*6E
1487999231.03,50179,7.56,72402.5,-18.29,-27.19,-24.93,0,*69
1487999232.25,50180,7.56,72394.5,-18.29,-27.03,-24.93,0,*64
1487999233.52,50181,7.56,72392.8,-18.31,-27.03,-24.87,0,*69
1487999234.81,50182,7.56,72434.0,-18.31,-26.71,-24.87,0,*6E
1487999236.06,50183,7.56,72424.8,-18.29,-26.61,-24.71,0,*6E
1487999237.3,50184,7.56,72422.3,-18.31,-26.61,-24.61,0,*61
1487999238.54,50185,7.56,72416.3,-18.29,-26.55,-24.61,0,*6E
1487999239.82,50186,7.56,72420.5,-18.31,-26.39,-24.71,0,*6F
1487999241.09,50187,7.56,72436.0,-18.31,-26.45,-24.71,0,*65
1487999242.36,50188,7.56,72444.0,-18.29,-26.55,-24.71,0,*62
1487999243.6,50189,7.56,72438.8,-18.29,-26.55,-24.77,0,*65
1487999244.86,50190,7.56,72450.0,-18.31,-26.55,-24.77,0,*64
1487999246.16,50191,7.56,72446.0,-18.31,-26.55,-24.87,0,*6A
1487999247.42,50192,7.56,72446.5,-18.29,-26.55,-24.87,0,*60
1487999248.69,50193,7.56,72416.5,-18.29,-26.71,-25.03,0,*6A
1487999249.95,50194,7.56,72426.3,-18.31,-26.71,-24.93,0,*6C
1487999251.19,50195,7.56,72434.5,-18.29,-26.55,-24.93,0,*62
1487999252.41,50196,7.56,72440.8,-18.29,-26.61,-24.93,0,*66
1487999253.65,50197,7.56,72446.0,-18.29,-26.45,-24.87,0,*64
1487999254.91,50198,7.56,72454.3,-18.29,-26.33,-24.77,0,*65
1487999256.21,50199,7.56,72454.5,-18.31,-26.33,-24.87,0,*62
1487999257.45,50200,7.56,72454.8,-18.29,-27.07,-25.03,0,*63
1487999258.7,50201,7.56,72450.8,-18.29,-27.35,-25.09,0,*69
1487999259.94,50202,7.56,72428.0,-18.29,-27.39,-25.19,0,*67
1487999261.18,50203,7.56,72426.3,-18.29,-27.39,-25.19,0,*66
1487999262.42,50204,7.56,72436.3,-18.29,-27.35,-25.19,0,*6D
1487999263.69,50205,7.56,72432.5,-18.29,-27.23,-25.03,0,*60
1487999264.94,50206,7.56,72450.8,-18.31,-27.03,-24.93,0,*60
1487999266.2,50207,7.56,72444.8,-18.31,-27.03,-24.87,0,*64
1487999267.44,50208,7.56,72436.8,-18.31,-27.03,-24.93,0,*6E
1487999268.66,50209,7.56,72420.0,-18.29,-27.03,-24.93,0,*66
1487999269.88,50210,7.56,72410.3,-18.29,-27.03,-24.93,0,*6E
1487999271.12,50211,7.56,72410.8,-18.29,-26.87,-24.87,0,*67
1487999272.36,50212,7.56,72412.5,-18.29,-26.71,-24.77,0,*62
1487999273.58,50213,7.56,72410.5,-18.29,-26.61,-24.77,0,*62
1487999274.85,50214,7.56,72416.8,-18.29,-26.55,-24.87,0,*6D
1487999276.09,50215,7.56,72422.3,-18.29,-26.39,-24.87,0,*66
1487999277.37,50216,7.56,72432.5,-18.29,-26.33,-24.87,0,*6F
1487999278.65,50217,7.56,72434.0,-18.29,-26.33,-24.87,0,*6E
1487999279.86,50218,7.56,72444.5,-18.29,-26.23,-24.93,0,*65
1487999281.13,50219,7.56,72450.5,-18.29,-26.33,-25.03,0,*6D
1487999282.35,50220,7.56,72456.5,-18.29,-26.45,-25.23,0,*64
1487999283.62,50221,7.56,72458.5,-18.29,-26.55,-25.45,0,*64
1487999284.9,50222,7.56,72450.8,-18.29,-26.93,-25.55,0,*6C
1487999286.15,50223,7.56,72448.0,-18.29,-27.03,-25.71,0,*63
1487999287.4,50224,7.56,72440.0,-18.29,-27.03,-25.75,0,*60
1487999288.63,50225,7.56,72418.3,-18.29,-27.19,-25.91,0,*60
1487999289.9,50226,7.56,72426.5,-18.29,-27.19,-25.75,0,*69
1487999291.14,50227,7.56,72420.3,-18.29,-27.23,-25.87,0,*6C
1487999292.39,50228,7.56,72424.0,-18.29,-27.39,-26.03,0,*67
1487999293.61,50229,7.56,72428.0,-18.29,-27.51,-25.91,0,*60
1487999294.82,50230,7.56,72424.8,-18.29,-27.51,-25.91,0,*68
1487999296.04,50231,7.56,72428.8,-18.29,-27.51,-25.91,0,*69
1487999297.29,50232,7.56,72420.5,-18.29,-27.55,-25.71,0,*60
1487999298.54,50233,7.56,72418.5,-18.29,-27.55,-25.55,0,*67
1487999299.78,50234,7.56,72406.8,-18.29,-27.55,-25.45,0,*61
1487999301.0,50235,7.56,72398.0,-18.29,-27.51,-25.35,0,*63
1487999302.25,50236,7.56,72400.0,-18.29,-27.35,-25.09,0,*6D